Voltar ao catálogo

SL-14 DEB

LostPO
NORAD 25831·DEBRIS·🇷🇺 Russia

Lançado Oct 26, 1978 de Plesetsk Cosmodrome

Loading…

Próximas Passagens (próximas 24 horas)

TLE

ObsoletoSource: Space-Track

Época: Jan 15, 2020, 13:52 UTC

1 25831U 78100AT  20015.57785365  .00000039  00000-0  10000-3 0  9995
2 25831  82.4740 328.1011 0236138  54.4132 307.9146 12.81065505954601

Acompanhe SL-14 DEB em tempo real com AllMySat

Download on the App Store